Wind_Speed
3 3 2 2 2 1 1 2 2 2 1 2 2 2 1 1 1 0 0 0 1 0 0 1 1 1 2 2 2 2 2 3 3 4 4 5 5 5 5 6 6 7 7
2 2 2 2 1 1 1 1 1 1 1 1 1 2 2 1 1 1 1 1 1 1 1 2 2 3 3 3 3 4 4 4 4 5 5 5 6 6 6 7 7 8 8
2 2 1 1 1 1 1 1 1 1 1 2 2 2 2 1 2 2 2 2 2 2 2 3 3 4 4 5 5 5 5 5 5 6 7 6 6 7 8 8 8 9 9
1 1 1 1 1 0 0 0 1 1 2 2 2 3 3 3 3 3 4 4 4 5 5 5 5 5 5 6 6 6 7 7 8 8 8 8 8 8 9 10 10 10 11
2 1 1 1 1 0 1 1 1 1 2 2 3 3 3 4 4 5 5 6 6 6 7 7 6 7 7 7 8 8 8 9 10 10 10 10 10 11 11 11 12 12 13
2 1 1 1 0 1 1 2 2 2 2 3 4 4 5 6 7 7 7 7 7 7 8 8 8 9 8 8 9 9 10 10 11 11 12 12 12 12 13 13 13 14 14
2 1 1 1 1 1 2 2 3 3 3 4 5 6 6 7 8 8 8 8 8 8 9 10 11 11 11 11 11 11 12 12 12 13 13 14 14 14 14 15 15 15 15
3 2 2 1 1 2 2 3 4 4 5 5 6 6 7 7 7 8 9 9 9 9 10 10 11 11 12 12 13 13 13 13 14 14 15 16 16 16 16 16 16 17 17
3 2 2 2 2 2 3 3 3 4 4 5 6 6 6 7 7 8 9 9 10 11 11 11 11 12 13 13 14 14 14 14 15 16 17 17 17 17 17 17 18 18 19
4 3 3 2 2 3 4 4 4 4 5 5 6 6 6 6 7 8 8 10 11 12 12 13 13 13 14 15 16 16 16 17 17 17 18 19 19 19 19 19 20 20 20
6 5 4 3 3 4 4 5 5 5 5 6 6 6 7 7 8 8 9 10 11 12 12 13 14 15 16 17 18 18 19 19 19 18 19 20 20 21 21 21 22 21 22
7 6 5 4 4 5 6 6 7 7 7 7 7 8 8 8 9 9 10 10 11 12 13 14 15 16 17 18 18 18 18 20 20 20 20 21 21 22 22 23 24 24 23
9 7 6 6 5 5 6 7 8 8 8 8 8 8 9 9 10 10 10 11 12 14 14 15 16 17 18 18 19 18 19 20 20 20 21 21 21 22 23 23 25 26 26
10 9 7 7 6 6 6 7 7 7 8 8 8 9 9 10 11 11 11 12 13 14 15 16 16 18 18 20 20 20 20 21 21 21 22 22 22 22 23 24 24 25 26
10 9 9 8 8 8 8 7 7 8 8 9 9 10 11 11 12 12 12 13 14 15 16 17 18 18 19 20 20 20 20 21 21 22 23 23 23 23 24 25 25 26 26
11 10 9 9 9 9 9 9 9 9 9 10 11 12 12 12 13 13 14 14 16 17 17 18 19 20 20 20 21 21 21 21 22 22 23 24 24 24 24 25 26 26 26
12 11 10 10 9 9 10 10 10 10 11 11 12 12 13 13 14 14 15 16 16 17 17 18 19 19 20 21 21 21 22 23 23 24 24 24 24 25 25 26 27 27 27
12 11 11 10 10 11 11 11 11 11 12 12 13 13 14 14 14 15 16 16 17 18 18 18 18 19 20 20 21 21 22 23 24 24 24 24 25 26 26 27 28 28 28
13 12 12 11 12 12 13 12 12 12 12 12 13 14 14 15 16 16 17 17 18 18 19 19 20 20 20 21 22 22 23 23 23 23 24 25 26 26 27 28 28 29 30
14 14 14 13 13 13 14 14 14 13 13 13 14 14 15 15 16 17 17 18 18 19 20 20 21 21 21 22 23 23 23 24 25 25 25 26 26 26 27 28 28 29 29
15 15 14 13 13 14 15 15 14 14 14 15 15 15 16 16 17 17 18 18 19 20 21 21 21 22 22 23 23 24 24 25 25 26 26 27 27 27 28 28 28 29 30
16 15 15 15 15 15 16 16 15 15 16 16 17 17 18 18 18 18 18 19 20 21 22 22 23 23 24 24 24 25 25 26 26 27 27 28 28 29 29 29 29 30 30
17 16 16 16 17 17 17 17 16 16 17 17 18 19 19 19 19 19 20 21 22 22 23 23 24 25 25 25 26 26 27 27 27 28 28 29 30 30 31 31 30 30 31
19 19 18 18 18 18 17 17 17 18 18 18 19 19 20 20 21 21 22 23 23 23 24 25 26 26 26 26 27 27 28 28 29 29 30 30 31 31 32 31 31 31 32
21 20 20 20 19 19 19 18 19 19 20 20 20 21 21 21 22 22 23 24 24 25 25 26 26 27 27 27 27 28 28 29 29 30 31 31 31 31 31 31 31 31 32
22 22 21 21 20 20 20 20 20 20 21 21 22 22 22 22 23 23 24 24 25 26 27 27 27 27 28 28 28 29 29 29 30 30 30 31 31 30 30 30 30 31 31
Wind_Direction
136 141 131 127 118 102 98 119 140 143 158 153 160 154 165 156 132 174 214 136 128 141 219 263 288 281 268 268 268 275 284 287 282 282 282 276 273 270 263 264 260 258 257
145 140 138 133 136 123 154 183 166 164 184 191 193 199 209 200 202 226 248 241 229 262 291 285 287 282 278 278 278 278 281 282 281 278 283 281 274 270 267 266 264 262 260
143 151 144 153 168 163 175 188 185 199 215 225 237 231 237 241 249 252 253 256 261 272 281 283 281 286 282 278 280 279 282 285 284 282 283 282 278 273 270 269 267 265 264
112 160 149 153 159 172 240 225 250 258 258 260 261 253 252 257 261 254 253 258 269 275 277 277 277 283 282 276 277 276 277 280 279 280 281 280 278 276 274 269 266 265 265
89 110 138 143 155 218 263 280 290 283 277 273 269 263 258 260 265 262 256 261 269 276 280 280 280 283 283 281 279 278 277 277 277 277 277 276 277 276 275 273 270 267 266
57 53 65 70 220 243 246 259 275 283 285 287 283 273 268 266 266 267 264 267 271 276 282 279 282 284 282 282 281 280 278 277 274 273 274 274 275 276 275 274 273 271 270
24 9 356 333 295 271 263 265 271 280 284 291 289 282 276 271 270 267 266 270 273 275 278 279 282 283 280 281 282 282 280 277 274 273 274 274 274 276 275 274 274 273 271
14 358 342 318 309 290 278 283 280 283 285 288 293 289 278 278 277 270 264 267 271 274 281 281 284 286 284 283 284 284 281 278 276 275 274 274 274 275 274 274 274 275 274
7 4 347 319 296 284 280 285 283 285 288 288 292 289 287 282 282 280 271 269 270 272 276 282 285 285 283 282 284 281 279 279 278 278 275 274 274 275 273 273 274 275 276
8 353 343 322 297 281 275 282 285 292 293 291 294 294 296 294 286 287 285 277 276 274 273 278 282 285 282 282 281 279 279 280 278 278 276 275 276 275 274 273 274 274 275
7 355 346 331 305 291 284 281 280 285 287 289 293 294 295 296 294 293 293 287 284 284 283 282 283 287 287 284 283 281 277 278 277 277 276 276 275 274 274 274 275 275 275
5 356 346 328 308 297 293 286 282 284 284 288 291 292 293 294 296 295 293 291 290 290 292 291 287 288 287 288 285 284 280 281 280 278 278 277 276 275 275 274 274 274 274
360 356 349 337 323 311 305 295 291 286 286 289 291 294 294 297 297 297 295 294 294 292 291 291 288 289 289 291 292 288 284 285 283 283 281 278 278 276 275 276 276 275 274
356 352 346 340 328 312 311 302 298 292 291 290 292 294 294 296 298 298 296 296 296 295 293 292 292 291 291 293 294 291 290 290 284 285 283 281 279 279 278 278 279 277 276
354 351 346 340 331 319 311 307 295 291 291 290 292 292 294 297 297 298 298 297 296 297 296 294 294 294 293 292 291 289 290 291 287 287 285 284 282 280 279 279 279 279 278
350 347 343 338 334 328 319 310 306 299 295 292 291 292 293 295 296 296 297 298 297 296 296 294 293 294 295 294 290 287 289 289 287 287 287 285 283 282 282 282 279 278 278
344 342 341 338 333 329 326 317 306 299 292 290 291 291 293 295 297 297 298 299 299 299 299 300 299 297 297 295 293 291 291 291 290 287 287 285 285 285 284 283 281 279 279
341 339 338 335 333 330 326 322 314 307 300 296 294 293 293 296 299 300 301 300 299 299 300 301 301 300 300 299 298 295 294 293 292 291 288 287 287 287 286 284 282 282 281
334 332 329 328 327 326 323 323 320 315 309 305 301 297 295 296 298 301 303 303 302 301 301 300 300 299 298 298 298 296 296 296 294 294 292 291 290 290 289 286 284 283 283
331 329 327 326 325 324 323 323 323 318 316 313 310 306 302 302 300 302 303 303 303 302 301 301 300 300 300 299 298 297 296 296 295 294 294 293 293 293 292 289 287 286 286
330 329 328 326 324 323 323 322 321 319 315 313 312 309 306 305 303 304 305 304 303 303 302 301 301 301 300 300 298 298 297 297 296 296 295 295 296 296 294 292 290 289 289
331 328 326 326 325 323 321 321 319 316 315 313 311 309 307 305 305 304 304 303 303 303 305 304 304 302 302 301 300 299 299 298 297 296 296 296 296 296 296 293 292 290 289
337 330 326 324 323 321 320 320 320 317 314 312 311 310 309 307 305 304 304 304 304 304 303 303 303 303 302 302 301 299 298 297 296 295 295 296 296 296 296 296 295 293 292
330 329 326 322 321 320 319 317 315 315 313 312 312 312 310 308 306 306 306 306 306 305 304 302 303 303 301 301 301 300 298 297 297 296 295 296 296 296 296 295 294 294 293
325 323 323 322 321 319 317 315 313 312 312 312 312 311 309 308 308 308 306 307 307 307 307 305 303 303 302 301 301 301 300 300 299 299 298 297 297 298 297 296 295 295 295
322 319 318 318 318 317 315 314 313 312 311 310 310 311 310 309 307 308 308 307 307 307 306 306 304 303 302 300 301 301 301 300 300 300 299 300 300 299 298 298 297 296 296
Height
5897 5897 5897 5897 5897 5898 5898 5898 5898 5898 5898 5898 5898 5898 5898 5898 5898 5898 5898 5897 5897 5897 5896 5896 5896 5896 5895 5895 5894 5894 5894 5893 5893 5892 5891 5891 5891 5890 5890 5889 5889 5889 5889
5897 5897 5897 5897 5897 5898 5898 5898 5898 5898 5898 5898 5898 5898 5898 5898 5898 5898 5897 5897 5897 5896 5896 5896 5896 5895 5895 5894 5894 5893 5893 5892 5892 5891 5891 5890 5889 5889 5889 5888 5888 5888 5887
5898 5898 5897 5897 5897 5897 5898 5898 5898 5898 5898 5898 5898 5898 5898 5897 5897 5897 5897 5896 5896 5896 5896 5895 5895 5894 5894 5893 5893 5892 5892 5891 5891 5890 5889 5889 5888 5888 5887 5887 5886 5886 5886
5897 5897 5898 5897 5897 5897 5898 5898 5898 5898 5898 5898 5897 5897 5897 5897 5896 5896 5896 5895 5895 5895 5894 5894 5894 5893 5893 5892 5891 5891 5890 5890 5889 5889 5888 5887 5886 5886 5885 5885 5884 5884 5883
5897 5897 5897 5897 5897 5897 5897 5897 5897 5897 5897 5897 5896 5896 5896 5895 5895 5895 5895 5894 5894 5893 5893 5892 5892 5891 5891 5890 5890 5889 5888 5888 5887 5886 5886 5885 5884 5883 5883 5882 5882 5881 5881
5897 5897 5897 5897 5897 5897 5897 5897 5897 5896 5896 5896 5895 5895 5895 5894 5894 5893 5893 5892 5892 5892 5891 5891 5890 5890 5889 5888 5887 5886 5886 5885 5884 5884 5883 5882 5881 5881 5880 5879 5879 5878 5878
5897 5897 5897 5896 5896 5896 5896 5896 5896 5896 5895 5895 5894 5893 5893 5892 5892 5891 5891 5891 5890 5890 5889 5889 5888 5887 5886 5885 5885 5884 5883 5882 5881 5881 5880 5879 5878 5878 5877 5876 5875 5875 5874
5897 5896 5896 5896 5896 5895 5895 5895 5895 5894 5894 5893 5893 5892 5891 5892 5890 5890 5889 5889 5888 5888 5887 5886 5885 5884 5884 5883 5882 5881 5880 5879 5878 5877 5876 5875 5874 5874 5873 5872 5872 5871 5870
5897 5896 5896 5895 5895 5894 5894 5893 5893 5893 5892 5892 5891 5890 5890 5889 5888 5888 5887 5886 5886 5885 5885 5884 5883 5882 5881 5880 5879 5878 5877 5876 5874 5873 5872 5871 5870 5869 5868 5868 5867 5866 5866
5896 5895 5895 5894 5894 5893 5893 5892 5892 5891 5891 5890 5889 5888 5888 5887 5886 5885 5885 5884 5883 5882 5881 5880 5879 5878 5877 5876 5875 5874 5873 5871 5870 5868 5867 5866 5865 5864 5864 5863 5862 5861 5861
5896 5895 5894 5893 5892 5892 5891 5891 5890 5889 5889 5888 5888 5887 5886 5885 5884 5883 5882 5882 5880 5879 5878 5877 5876 5875 5873 5872 5870 5869 5867 5866 5864 5863 5862 5861 5860 5859 5858 5858 5857 5856 5855
5895 5894 5893 5892 5891 5890 5889 5889 5888 5888 5887 5886 5885 5885 5884 5883 5882 5881 5880 5879 5877 5876 5875 5874 5872 5871 5869 5868 5866 5864 5862 5861 5859 5858 5857 5856 5855 5854 5853 5852 5851 5850 5849
5895 5893 5892 5890 5889 5888 5887 5886 5886 5885 5884 5884 5883 5882 5881 5880 5879 5878 5877 5876 5874 5873 5872 5870 5869 5867 5865 5863 5861 5859 5858 5856 5854 5853 5852 5850 5849 5848 5847 5845 5844 5843 5842
5894 5892 5890 5889 5887 5886 5885 5884 5883 5883 5882 5881 5880 5880 5879 5878 5877 5875 5874 5873 5871 5870 5868 5867 5865 5863 5861 5859 5856 5854 5853 5851 5849 5848 5846 5845 5843 5842 5840 5839 5838 5836 5835
5893 5891 5890 5888 5886 5884 5884 5882 5881 5880 5879 5878 5878 5877 5876 5875 5873 5872 5870 5869 5868 5866 5864 5862 5861 5859 5856 5854 5852 5850 5848 5846 5844 5842 5840 5838 5837 5835 5834 5833 5831 5829 5828
5892 5890 5888 5886 5885 5883 5882 5880 5879 5878 5877 5876 5875 5874 5873 5871 5870 5868 5867 5865 5864 5862 5860 5858 5856 5854 5852 5849 5847 5845 5843 5841 5838 5836 5834 5832 5831 5829 5828 5826 5824 5822 5821
5891 5889 5887 5885 5883 5881 5880 5878 5876 5875 5874 5873 5872 5871 5869 5868 5866 5864 5863 5861 5859 5857 5855 5853 5851 5849 5847 5844 5842 5839 5837 5835 5832 5830 5828 5826 5824 5822 5821 5819 5817 5815 5813
5890 5887 5885 5883 5882 5880 5878 5876 5874 5872 5871 5869 5868 5867 5866 5864 5862 5860 5858 5856 5854 5852 5851 5848 5846 5844 5842 5839 5836 5834 5831 5829 5827 5824 5822 5820 5818 5816 5814 5812 5809 5807 5805
5887 5886 5884 5881 5879 5877 5875 5873 5871 5869 5867 5866 5865 5863 5862 5860 5858 5856 5854 5852 5850 5848 5846 5844 5841 5839 5836 5834 5831 5829 5826 5823 5821 5818 5816 5813 5811 5809 5806 5804 5802 5799 5797
5885 5883 5881 5879 5877 5875 5873 5870 5868 5866 5864 5863 5861 5859 5858 5856 5854 5852 5850 5848 5846 5843 5841 5839 5836 5834 5831 5828 5826 5823 5820 5818 5815 5812 5809 5807 5804 5801 5799 5796 5794 5791 5789
5882 5880 5878 5876 5874 5872 5870 5867 5865 5863 5861 5859 5857 5856 5854 5852 5849 5847 5845 5843 5841 5838 5836 5833 5831 5828 5825 5822 5820 5817 5814 5811 5808 5805 5803 5800 5797 5794 5791 5788 5785 5783 5780
5880 5878 5875 5873 5871 5869 5866 5864 5862 5860 5857 5855 5853 5851 5849 5847 5845 5843 5841 5838 5835 5833 5830 5827 5825 5822 5819 5816 5813 5810 5807 5804 5802 5799 5796 5793 5790 5787 5783 5780 5777 5774 5771
5878 5875 5873 5870 5868 5865 5863 5860 5858 5856 5854 5851 5849 5847 5844 5842 5840 5838 5835 5833 5830 5827 5825 5822 5819 5815 5812 5810 5807 5803 5800 5797 5794 5791 5788 5785 5782 5778 5775 5772 5769 5765 5762
5875 5872 5869 5867 5864 5862 5859 5856 5854 5852 5849 5847 5844 5842 5840 5837 5835 5832 5830 5827 5824 5821 5818 5815 5812 5809 5806 5802 5799 5796 5793 5790 5786 5783 5780 5777 5773 5770 5767 5763 5760 5757 5754
5872 5869 5866 5863 5860 5857 5855 5852 5850 5847 5844 5842 5840 5837 5834 5832 5829 5826 5824 5821 5818 5815 5812 5808 5805 5801 5798 5795 5792 5789 5785 5782 5778 5775 5771 5768 5765 5761 5758 5755 5752 5748 5745
5867 5864 5861 5858 5856 5853 5850 5848 5845 5842 5839 5837 5834 5832 5829 5826 5823 5820 5817 5814 5811 5808 5805 5801 5798 5794 5791 5787 5784 5781 5777 5774 5770 5767 5763 5760 5756 5753 5750 5747 5743 5740 5736